This is the latest recevied weather packets stored in our database for station/object KA2FNK. If no packets are shown the sender has not sent any weather packets the latest 10 day(s).
| Time | Temp. | Humidity | Pressure | Rain* | Wind** | Luminosity | Snow |
|---|---|---|---|---|---|---|---|
| 1777772795 | 12.78° C | 53% | 1018 hPa | 0 mm | - | - | - |
| 1777772494 | 13.33° C | 52% | 1018 hPa | 0 mm | - | - | - |
| 1777772193 | 13.33° C | 51% | 1018 hPa | 0 mm | - | - | - |
| 1777771892 | 13.33° C | 49% | 1017.8 hPa | 0 mm | - | - | - |
| 1777771591 | 13.89° C | 48% | 1018 hPa | 0 mm | - | - | - |
| 1777771290 | 13.89° C | 47% | 1018 hPa | 0 mm | - | - | - |
| 1777770989 | 14.44° C | 46% | 1018 hPa | 0 mm | - | - | - |
| 1777770688 | 14.44° C | 46% | 1018 hPa | 0 mm | - | - | - |
| 1777770387 | 15° C | 45% | 1018 hPa | 0 mm | - | - | - |
| 1777770086 | 15° C | 44% | 1018 hPa | 0 mm | - | - | - |
| 1777769785 | 15° C | 43% | 1018 hPa | 0 mm | - | - | - |
| 1777769484 | 15.56° C | 42% | 1018.1 hPa | 0 mm | - | - | - |
| 1777769183 | 15.56° C | 42% | 1018.1 hPa | 0 mm | - | - | - |
| 1777768882 | 15.56° C | 42% | 1018.1 hPa | 0 mm | - | - | - |
| 1777768581 | 16.11° C | 41% | 1018.1 hPa | 0 mm | - | - | - |
| 1777768280 | 16.11° C | 39% | 1018.1 hPa | 0 mm | - | - | - |
| 1777767979 | 16.11° C | 39% | 1018.1 hPa | 0 mm | - | - | - |
| 1777767678 | 16.11° C | 39% | 1018.2 hPa | 0 mm | - | - | - |
| 1777767377 | 16.11° C | 40% | 1018.2 hPa | 0 mm | - | - | - |
| 1777767076 | 16.67° C | 39% | 1018.2 hPa | 0 mm | - | - | - |
| 1777766775 | 16.67° C | 38% | 1018.2 hPa | 0 mm | - | - | - |
| 1777766474 | 16.67° C | 38% | 1018.2 hPa | 0 mm | - | - | - |
| 1777766174 | 16.67° C | 40% | 1018.2 hPa | 0 mm | - | - | - |
| 1777765873 | 16.67° C | 40% | 1018.3 hPa | 0 mm | - | - | - |
| 1777765572 | 16.11° C | 40% | 1018.2 hPa | 0 mm | - | - | - |
* Rain latest hour (hover to see other rain measurements)
** Current wind speed in m/s (hover to see current wind gust speed)